Location: Dalton Gardens
(47.7327°N, 116.7697°W)
Time: 23:18:49
(UTC+00:00)

BlueWalker 3 - Pass Details

Date: 30 November 2022
Orbit: 499 x 517 km, 53.2° (Epoch: 04 February)

Event Time Altitude Azimuth Distance (km) Brightness Sun altitude
Rises 00:48:20 0° 252° (WSW) 2,627 8.0 -8.3°
Reaches altitude 10° 00:50:33 10° 256° (WSW) 1,738 6.3 -8.7°
Maximum altitude 00:54:28 63° 337° (NNW) 578 2.2 -9.3°
Enters shadow 00:57:51 13° 58° (ENE) 1,533 3.7 -9.8°
